Погода в Суходоле

Россия / Республика Марий Эл     56°19′53″N   46°16′55″E
темп.,
°C
ветер,
м/с
пор.,
м/с
влажн.,
%
обл.,
%
осадки,
мм/ч
давл.,
гПа
погр.,
м
20 апреля, вт
вт2000:000в5145754 0.0 1030420
03:00−1в5135955 0.0 1030339
06:000в513570 0.0 1030366
09:00+6вюв610440 0.0 1030857
12:00+9вюв710330 0.0 10291533
15:00+10вюв710300 0.0 10281618
18:00+8вюв6113845 0.0 1026920
21:00+5вюв51444100 0.0 1025532
21 апреля, ср
ср2100:00+4вюв71644100 0.0 1023760
03:00+4вюв81847100 0.0 1020800
06:00+3юв91865100 1.7 1019907
09:00+2юв91887100 4.7 1018841
12:00+1юв91994100 4.9 1016752
15:00+2юв91790100 5.3 1016736
18:00+3юв81692100 0.1 1015662
21:00+4ююв71793100 0.6 1015732
22 апреля, чт
чт2200:00+5ю61294100 0.1 1016748
03:00+5ю51196100 0.2 1017471
06:00+5ююв4996100 0.1 1018351
09:00+8ю5108780 0.1 1019680
12:00+11ю5107497 0.1 10191233
15:00+10юз5107371 1.1 10191047
18:00+9зюз257844 0.1 1020182
21:00+7зюз118485 0.1 102111
23 апреля, пт
пт2300:00+5ю11879 0.0 102210
03:00+4ююв22885 0.0 102215
06:00+5ююв24855 0.0 1023106
09:00+9ю3576100 0.0 1023318
12:00+12ююв456256 0.0 1023656
15:00+15ю355130 0.1 10211562
18:00+13ююв376813 0.6 1021203
21:00+9юв36816 0.8 102189
24 апреля, сб
сб2400:00+7ююв3108833 0.0 1020185
03:00+6юв358913 0.0 101878
06:00+7юв3108878 0.1 1018265
09:00+12юв576713 0.1 1017779
12:00+14юв565558 0.0 10161467
15:00+14юв665394 0.0 10141647
18:00+11вюв586176 0.0 1013651
21:00+8в411755 0.0 1012272